Regional Weather Roundup
Issued by NWS Grand Forks, ND

Home | Current Version | Previous Version | Graphics & Text | Print | Product List | Glossary On
Versions: 1 2 3 4 5 6 7 8 9 10 11 12 13 14 15 16 17 18 19 20 21 22 23 24 25 26 27 28 29 30 31 32 33 34 35 36 37 38 39 40 41 42 43 44 45 46 47 48 49 50
000
ASUS43 KFGF 290631
RWRFGF
PRAIRIE TO PINES  WEATHER ROUNDUP
NATIONAL WEATHER SERVICE EASTERN NORTH DAKOTA/GRAND FORKS ND
100 AM CDT FRI MAY 29 2015

 **SATELLITE DATA USED TO AUGMENT SKY COVER AT AUTOMATED STATIONS**
 *****  WEATHER ACROSS EASTERN NORTH DAKOTA  *****

CITY           SKY/WX    TMP DP  RH WIND       PRES   REMARKS
GRAND FORKS    CLOUDY    60  58  92 N17       29.88R
6HR MIN TEMP:  60; 6HR MAX TEMP:  67; 6HR PCP:  0.01;

GRAND FRKS AFB CLOUDY    61  57  88 N15       29.90R
GRAND FRKS NWS   N/A     59 N/A N/A VRB10       N/A
DEVILS LAKE    CLOUDY    54  46  76 N23G29    29.97R
6HR MIN TEMP:  55; 6HR MAX TEMP:  73;

FARGO          HVY RAIN  63  61  93 S14       29.84F FOG
WAHPETON ARPT  CLOUDY    61  59  94 SE6       29.84F
$$

 ***** WEATHER ACROSS CENTRAL AND WESTERN NORTH DAKOTA  *****

CITY           SKY/WX    TMP DP  RH WIND       PRES   REMARKS
BISMARCK       CLOUDY    61  53  75 N20G29    29.96R
6HR MIN TEMP:  61; 6HR MAX TEMP:  74;

MINOT          CLOUDY    50  42  74 N24G32    30.08R
6HR MIN TEMP:  50; 6HR MAX TEMP:  70; 6HR PCP: TRACE;

JAMESTOWN      MOCLDY    64  60  87 N14       29.88R
6HR MIN TEMP:  63; 6HR MAX TEMP:  75;

MINOT AFB      CLOUDY    50  50  99 N18G28    30.08R
GARRISON         N/A     52  46  80 N13G24    30.04R
WILLISTON      CLOUDY    50  38  63 N22G31    30.15R
6HR MIN TEMP:  50; 6HR MAX TEMP:  65; 6HR PCP: TRACE;

DICKINSON      CLOUDY    56  51  84 N14       30.05R
6HR MIN TEMP:  56; 6HR MAX TEMP:  71; 6HR PCP: TRACE;

HETTINGER      CLOUDY    57  53  86 N16       30.02R
6HR MIN TEMP:  54; 6HR MAX TEMP:  66; 6HR PCP:  0.21;

$$

 *****  OTHER AIRPORT OBSERVATIONS IN OUR AREA  *****

CITY           SKY/WX    TMP DP  RH WIND       PRES   REMARKS
WALHALLA         N/A     50  50 100 MISG      29.99R
GRAFTON AIRPOR CLOUDY    55  55 100 N20G31    29.93R
VALLEY CITY AR CLOUDY    64  64 100 N13G25    29.87S
CANDO          CLOUDY    50  48  93 N25       30.01R
CAVALIER APRT  NOT AVBL
GWINNER        NOT AVBL
SHEYENNE NWR     N/A     62  61  96 NW7       29.95
ROLLA          MOCLDY    46  46 100 N22       30.05S
 ***** THE ABOVE OBSERVATIONS ARE NON NWS ARE NOT QUALITY
       CONTROLLED AND MAY MIS-REPORT RAIN FOR SNOW...
$$

  *****  WEATHER ACROSS NORTHERN MINNESOTA  *****

CITY           SKY/WX    TMP DP  RH WIND       PRES   REMARKS
FLAG ISLAND    CLOUDY    59  57  94 NW9       29.83F
WARROAD        CLOUDY    61  55  82 NW9       29.85S
ROSEAU         CLOUDY    61  55  82 NW12      29.86R
HALLOCK        CLOUDY    57  55  94 N16       29.91R
THF RVR FALLS  CLOUDY    63  61  94 NW12      29.86S
6HR MIN TEMP:  63; 6HR MAX TEMP:  66; 6HR PCP:  0.01;

BAUDETTE       CLOUDY    60  59  96 NW6       29.84S
6HR MIN TEMP:  60; 6HR MAX TEMP:  62; 6HR PCP:  0.34;

WASKISH        CLOUDY    61  59  94 CALM      29.85R
CROOKSTON      CLOUDY    63  61  94 N18       29.87R FOG
$$
  *****  WEATHER ACROSS CENTRAL AND WEST MINNESOTA  *****

CITY           SKY/WX    TMP DP  RH WIND       PRES   REMARKS
FOSSTON        CLOUDY    59  57  94 SW7       29.87S
BEMIDJI        HVY RAIN  59  58  96 SW3       29.87R
PARK RAPIDS    RAIN      61  59  93 S3        29.87F
6HR MIN TEMP:  61; 6HR MAX TEMP:  78; 6HR PCP:  0.55;

ELBOW LAKE     LGT RAIN  60  59  98 SE6       29.87F
6HR MIN TEMP:  59; 6HR MAX TEMP:  80; 6HR PCP:  0.87;

WADENA         RAIN      61  57  88 SE5       29.87F
DETROIT LAKES  LGT RAIN  61  59  94 S5        29.87F
MOORHEAD       LGT RAIN  61  61 100 CALM      29.88R
FERGUS FALLS   RAIN      61  61 100 SE9       29.85F
MORRIS MN      CLOUDY    63  61  94 E7        29.87F
STAPLES        RAIN      61  59  94 NW7       29.88F
$$
  *****  WEATHER ELSEWHERE ACROSS MINNESOTA  *****

CITY           SKY/WX    TMP DP  RH WIND       PRES   REMARKS
DULUTH         CLOUDY    46  42  86 SE3       29.90F
6HR MIN TEMP:  44; 6HR MAX TEMP:  48;

INTRNTL FALLS  CLOUDY    59  57  93 CALM      29.84S
6HR MIN TEMP:  58; 6HR MAX TEMP:  62; 6HR PCP:  0.45;

ELY            NOT AVBL
CLOQUET        CLOUDY    43  43 100 SE3       29.90F FOG
WHEATON        CLOUDY    59  57  94 SE10      29.87F
BRAINERD       CLOUDY    69  55  60 W7        29.89R
6HR MIN TEMP:  69; 6HR MAX TEMP:  79;

HIBBING        CLOUDY    57  48  72 SW5       29.89F
6HR MIN TEMP:  56; 6HR MAX TEMP:  73;

ALEXANDRIA     CLOUDY    61  58  90 N6        29.91F
6HR MIN TEMP:  61; 6HR MAX TEMP:  80; 6HR PCP:  0.04;

SAINT CLOUD    PTCLDY    67  58  72 S9        29.87F
6HR MIN TEMP:  67; 6HR MAX TEMP:  80;

MINNEAPOLIS    CLOUDY    72  57  59 S8        29.91F
6HR MIN TEMP:  72; 6HR MAX TEMP:  81;

$$

  *****  WEATHER ACROSS SOUTH DAKOTA  *****

CITY           SKY/WX    TMP DP  RH WIND       PRES   REMARKS
SIOUX FALLS    PTCLDY    67  63  87 S13       29.87F
6HR MIN TEMP:  66; 6HR MAX TEMP:  73;

BROOKINGS      MOCLDY    63  57  82 S10       29.87F THUNDER
WATERTOWN      HVY RAIN  61  59  93 NE9       29.89S FOG
6HR MIN TEMP:  61; 6HR MAX TEMP:  78; 6HR PCP:  0.43;

HURON            N/A    N/A N/A N/A MISG      29.83F
SISSETON         N/A     62  62 100 S15       29.88R
ABERDEEN       CLOUDY    62  60  93 S7        29.85R
6HR MIN TEMP:  62; 6HR MAX TEMP:  81; 6HR PCP:  0.32;

MITCHELL       CLOUDY    67  61  81 S8        29.85F
PIERRE         CLOUDY    59  56  89 W9        29.87F
6HR MIN TEMP:  59; 6HR MAX TEMP:  69; 6HR PCP: TRACE;

MOBRIDGE       CLOUDY    65  61  87 NE14      29.87R
RAPID CITY     CLOUDY    58  51  78 N14       30.00S
6HR MIN TEMP:  55; 6HR MAX TEMP:  59; 6HR PCP:  0.06;

$$

  *****  SOME WEATHER IN NEARBY STATES *****

CITY           SKY/WX    TMP DP  RH WIND       PRES   REMARKS
GLASGOW MT     PTCLDY    45  39  79 N7        30.25R
6HR MIN TEMP:  45; 6HR MAX TEMP:  60;

GREAT FALLS MT CLOUDY    45  44  97 N7        30.33S FOG
6HR MIN TEMP:  45; 6HR MAX TEMP:  50; 6HR PCP:  0.08;

CHEYENNE WY    CLOUDY    50  40  68 N16G23    30.18R
6HR MIN TEMP:  50; 6HR MAX TEMP:  64;

SCOTTSBLUFF NE CLOUDY    55  52  89 N7        30.07F
6HR MIN TEMP:  55; 6HR MAX TEMP:  68; 6HR PCP:  0.06;

OMAHA NE       CLOUDY    68  63  84 S14       29.92S
6HR MIN TEMP:  67; 6HR MAX TEMP:  72;

DES MOINES IA  MOCLDY    65  62  90 S7        29.96S
6HR MIN TEMP:  65; 6HR MAX TEMP:  74;

DAVENPORT IA   LGT RAIN  67  61  81 S6        30.02S
6HR MIN TEMP:  66; 6HR MAX TEMP:  80; 6HR PCP: TRACE;

CHICAGO IL     MOCLDY    65  55  70 SE5       30.05S
6HR MIN TEMP:  64; 6HR MAX TEMP:  79;

EAU CLAIRE WI  LGT RAIN  67  57  70 S6        29.98R
6HR MIN TEMP:  67; 6HR MAX TEMP:  79; 6HR PCP: TRACE;

LA CROSSE WI   LGT RAIN  70  59  68 S3        29.97S
6HR MIN TEMP:  70; 6HR MAX TEMP:  81; 6HR PCP: TRACE;

$$

  *****  SOME NATIONAL WEATHER *****

CITY           SKY/WX    TMP DP  RH WIND       PRES   REMARKS
LA GUARDIA NY  PTCLDY    69  53  56 N9        30.25R
6HR MIN TEMP:  69; 6HR MAX TEMP:  80;

RALEIGH NC     PTCLDY    71  67  87 SE3       30.22S
6HR MIN TEMP:  70; 6HR MAX TEMP:  81; 6HR PCP:  0.15;

ATLANTA GA     PTCLDY    68  66  94 E6        30.16F
6HR MIN TEMP:  69; 6HR MAX TEMP:  71; 6HR PCP:  0.02;

NEW ORLEANS LA PTCLDY    77  70  79 SE7       30.04F
6HR MIN TEMP:  77; 6HR MAX TEMP:  86; 6HR PCP: TRACE;

OKLAHOMA CITY  CLOUDY    68  59  73 SE10      29.90R
6HR MIN TEMP:  67; 6HR MAX TEMP:  74; 6HR PCP:  0.04;

ALBUQUERQUE NM CLEAR     71  31  22 N9        30.07S
6HR MIN TEMP:  71; 6HR MAX TEMP:  85;

SALT LAKE CITY PTCLDY    58  46  64 SW3       30.15R
6HR MIN TEMP:  58; 6HR MAX TEMP:  71;

LOS ANGELES CA PTCLDY    58  56  93 SW6       29.97R
6HR MIN TEMP:  58; 6HR MAX TEMP:  65;

BOISE ID       CLEAR     63  45  51 CALM      30.06S


USA.gov is the U.S. government's official web portal to all federal, state and local government web resources and services.